Simultaneous Nadir Overpasses (SNOs) Predictions

Prediction of SNOs between GOES-15 and METOP-C Satellite Orbit:

Table of predicted SNOs for the next 14.0 days since TLE Epoch: 8/13/2022
Index Date Time (GOES-15) GOES-15 Lat,Lon METOP-C Lat,Lon Distance(km) Time Diff (sec)
1 08/13/2022 05:52:26 0.04,-128.02 0.64,-125.23 316.84 80
2 08/14/2022 18:08:39 -0.08,-128.11 0.29,-129.82 194.46 80
3 08/15/2022 17:50:38 -0.06,-128.11 -0.79,-124.82 375.81 80
4 08/17/2022 06:06:58 0.10,-128.03 -0.20,-129.42 157.43 80
5 08/18/2022 05:48:57 0.07,-128.03 0.88,-124.41 412.13 80
6 08/19/2022 18:05:10 -0.11,-128.11 0.09,-128.99 100.14 80
7 08/20/2022 17:47:09 -0.08,-128.11 -0.99,-123.99 469.55 80
8 08/22/2022 06:03:28 0.12,-128.02 -0.01,-128.58 64.21 80
9 08/24/2022 18:01:40 -0.13,-128.08 -0.11,-128.16 9.14 80
